Time,TemperatureF,DewpointF,PressureIn,WindDirection,WindDirectionDegrees,WindSpeedMPH,WindSpeedGustMPH,Humidity,HourlyPrecipIn,Conditions,Clouds,dailyrainin,SoftwareType,DateUTC
2013-04-16 00:00:00,43.5,19.6,30.18,North,-999,0.0,0.0,38,0.00,,,-99.99,FreeWX-Wi 1.01,2013-04-16 07:00:00,
2013-04-16 00:05:00,43.5,19.6,30.21,North,-999,0.0,0.0,38,0.00,,,-99.99,FreeWX-Wi 1.01,2013-04-16 07:05:00,
2013-04-16 00:10:00,43.5,19.6,30.21,North,-999,0.0,0.0,38,0.00,,,-99.99,FreeWX-Wi 1.01,2013-04-16 07:10:00,
2013-04-16 00:16:00,43.5,19.6,30.21,North,-999,0.0,0.0,38,0.00,,,-99.99,FreeWX-Wi 1.01,2013-04-16 07:16:00,
2013-04-16 00:21:00,43.5,19.6,30.21,North,-999,0.0,0.0,38,0.00,,,-99.99,FreeWX-Wi 1.01,2013-04-16 07:21:00,
2013-04-16 00:26:00,43.3,19.4,30.21,North,-999,0.0,0.0,38,0.00,,,-99.99,FreeWX-Wi 1.01,2013-04-16 07:26:00,
2013-04-16 00:31:00,43.5,19.6,30.21,North,-999,0.0,0.0,38,0.00,,,-99.99,FreeWX-Wi 1.01,2013-04-16 07:31:00,
2013-04-16 00:36:00,43.5,19.6,30.21,North,-999,0.0,0.0,38,0.00,,,-99.99,FreeWX-Wi 1.01,2013-04-16 07:36:00,
2013-04-16 00:41:00,43.5,19.6,30.21,North,-999,0.0,0.0,38,0.00,,,-99.99,FreeWX-Wi 1.01,2013-04-16 07:41:00,
2013-04-16 00:46:00,43.5,19.6,30.21,North,-999,0.0,0.0,38,0.00,,,-99.99,FreeWX-Wi 1.01,2013-04-16 07:46:00,
2013-04-16 00:51:00,43.3,19.4,30.21,North,-999,0.0,0.0,38,0.00,,,-99.99,FreeWX-Wi 1.01,2013-04-16 07:51:00,
2013-04-16 00:56:00,43.3,19.4,30.21,North,-999,0.0,0.0,38,0.00,,,-99.99,FreeWX-Wi 1.01,2013-04-16 07:56:00,
2013-04-16 01:01:00,43.2,19.2,30.21,North,-999,0.0,0.0,38,0.00,,,-99.99,FreeWX-Wi 1.01,2013-04-16 08:01:00,
2013-04-16 01:06:00,43.2,19.2,30.21,North,-999,0.0,0.0,38,0.00,,,-99.99,FreeWX-Wi 1.01,2013-04-16 08:06:00,
2013-04-16 01:11:00,43.3,19.4,30.21,North,-999,0.0,0.0,38,0.00,,,-99.99,FreeWX-Wi 1.01,2013-04-16 08:11:00,
2013-04-16 01:16:00,43.3,19.4,30.21,North,-999,0.0,0.0,38,0.00,,,-99.99,FreeWX-Wi 1.01,2013-04-16 08:16:00,
2013-04-16 01:21:00,43.2,19.2,30.21,North,-999,0.0,0.0,38,0.00,,,-99.99,FreeWX-Wi 1.01,2013-04-16 08:21:00,
2013-04-16 01:26:00,43.2,19.2,30.21,North,-999,0.0,0.0,38,0.00,,,-99.99,FreeWX-Wi 1.01,2013-04-16 08:26:00,
2013-04-16 01:36:00,43.0,19.8,30.21,North,-999,0.0,0.0,39,0.00,,,-99.99,FreeWX-Wi 1.01,2013-04-16 08:36:00,
2013-04-16 01:41:00,43.0,19.8,30.21,North,-999,0.0,0.0,39,0.00,,,-99.99,FreeWX-Wi 1.01,2013-04-16 08:41:00,
2013-04-16 01:46:00,43.0,19.8,30.21,North,-999,0.0,0.0,39,0.00,,,-99.99,FreeWX-Wi 1.01,2013-04-16 08:46:00,
2013-04-16 01:51:00,42.8,20.1,30.24,North,-999,0.0,0.0,40,0.00,,,-99.99,FreeWX-Wi 1.01,2013-04-16 08:51:00,
2013-04-16 01:56:00,42.8,20.1,30.24,North,-999,0.0,0.0,40,0.00,,,-99.99,FreeWX-Wi 1.01,2013-04-16 08:56:00,
2013-04-16 02:01:00,42.8,20.1,30.24,North,-999,0.0,0.0,40,0.00,,,-99.99,FreeWX-Wi 1.01,2013-04-16 09:01:00,
2013-04-16 02:06:00,42.8,20.1,30.21,North,-999,0.0,0.0,40,0.00,,,-99.99,FreeWX-Wi 1.01,2013-04-16 09:06:00,
2013-04-16 02:11:00,42.6,19.9,30.21,North,-999,0.0,0.0,40,0.00,,,-99.99,FreeWX-Wi 1.01,2013-04-16 09:11:00,
2013-04-16 02:16:00,42.6,19.9,30.21,North,-999,0.0,0.0,40,0.00,,,-99.99,FreeWX-Wi 1.01,2013-04-16 09:16:00,
2013-04-16 02:21:00,42.4,20.5,30.21,North,-999,0.0,0.0,41,0.00,,,-99.99,FreeWX-Wi 1.01,2013-04-16 09:21:00,
2013-04-16 02:26:00,42.3,20.3,30.21,North,-999,0.0,0.0,41,0.00,,,-99.99,FreeWX-Wi 1.01,2013-04-16 09:26:00,
2013-04-16 02:31:00,42.4,20.5,30.21,North,-999,0.0,0.0,41,0.00,,,-99.99,FreeWX-Wi 1.01,2013-04-16 09:31:00,
2013-04-16 02:36:00,42.6,21.2,30.21,North,-999,0.0,0.0,42,0.00,,,-99.99,FreeWX-Wi 1.01,2013-04-16 09:36:00,
2013-04-16 02:41:00,42.8,20.7,30.21,North,-999,0.0,0.0,41,0.00,,,-99.99,FreeWX-Wi 1.01,2013-04-16 09:41:00,
2013-04-16 02:46:00,42.6,20.7,30.21,North,-999,0.0,0.0,41,0.00,,,-99.99,FreeWX-Wi 1.01,2013-04-16 09:46:00,
2013-04-16 02:51:00,42.6,20.7,30.24,North,-999,0.0,0.0,41,0.00,,,-99.99,FreeWX-Wi 1.01,2013-04-16 09:51:00,
2013-04-16 02:56:00,42.6,20.7,30.24,North,-999,0.0,0.0,41,0.00,,,-99.99,FreeWX-Wi 1.01,2013-04-16 09:56:00,
2013-04-16 03:02:00,42.6,20.7,30.24,North,-999,0.0,0.0,41,0.00,,,-99.99,FreeWX-Wi 1.01,2013-04-16 10:02:00,
2013-04-16 03:07:00,42.8,20.7,30.24,North,-999,0.0,0.0,41,0.00,,,-99.99,FreeWX-Wi 1.01,2013-04-16 10:07:00,
2013-04-16 03:12:00,42.8,20.1,30.24,North,-999,0.0,0.0,40,0.00,,,-99.99,FreeWX-Wi 1.01,2013-04-16 10:12:00,
2013-04-16 03:17:00,42.8,20.1,30.24,North,-999,0.0,0.0,40,0.00,,,-99.99,FreeWX-Wi 1.01,2013-04-16 10:17:00,
2013-04-16 03:22:00,42.8,20.1,30.21,North,-999,0.0,0.0,40,0.00,,,-99.99,FreeWX-Wi 1.01,2013-04-16 10:22:00,
2013-04-16 03:27:00,42.6,19.9,30.21,North,-999,0.0,0.0,40,0.00,,,-99.99,FreeWX-Wi 1.01,2013-04-16 10:27:00,
2013-04-16 03:32:00,42.4,19.8,30.21,North,-999,0.0,0.0,40,0.00,,,-99.99,FreeWX-Wi 1.01,2013-04-16 10:32:00,
2013-04-16 03:37:00,42.3,19.8,30.24,North,-999,0.0,0.0,40,0.00,,,-99.99,FreeWX-Wi 1.01,2013-04-16 10:37:00,
2013-04-16 03:42:00,42.1,19.6,30.24,North,-999,0.0,0.0,40,0.00,,,-99.99,FreeWX-Wi 1.01,2013-04-16 10:42:00,
2013-04-16 03:47:00,41.9,19.4,30.24,North,-999,0.0,0.0,40,0.00,,,-99.99,FreeWX-Wi 1.01,2013-04-16 10:47:00,
2013-04-16 03:52:00,41.9,19.9,30.24,North,-999,0.0,0.0,41,0.00,,,-99.99,FreeWX-Wi 1.01,2013-04-16 10:52:00,
2013-04-16 03:57:00,41.9,19.9,30.24,North,-999,0.0,0.0,41,0.00,,,-99.99,FreeWX-Wi 1.01,2013-04-16 10:57:00,
2013-04-16 04:02:00,41.9,19.9,30.24,North,-999,0.0,0.0,41,0.00,,,-99.99,FreeWX-Wi 1.01,2013-04-16 11:02:00,
2013-04-16 04:07:00,41.7,19.8,30.24,North,-999,0.0,0.0,41,0.00,,,-99.99,FreeWX-Wi 1.01,2013-04-16 11:07:00,
2013-04-16 04:12:00,41.7,19.8,30.24,North,-999,0.0,0.0,41,0.00,,,-99.99,FreeWX-Wi 1.01,2013-04-16 11:12:00,
2013-04-16 04:17:00,41.7,19.8,30.24,North,-999,0.0,0.0,41,0.00,,,-99.99,FreeWX-Wi 1.01,2013-04-16 11:17:00,
2013-04-16 04:22:00,41.5,19.6,30.24,North,-999,0.0,0.0,41,0.00,,,-99.99,FreeWX-Wi 1.01,2013-04-16 11:22:00,
2013-04-16 04:27:00,41.5,19.6,30.24,North,-999,0.0,0.0,41,0.00,,,-99.99,FreeWX-Wi 1.01,2013-04-16 11:27:00,
2013-04-16 04:32:00,41.4,19.9,30.24,North,-999,0.0,0.0,42,0.00,,,-99.99,FreeWX-Wi 1.01,2013-04-16 11:32:00,
2013-04-16 04:37:00,41.4,19.9,30.24,North,-999,0.0,0.0,42,0.00,,,-99.99,FreeWX-Wi 1.01,2013-04-16 11:37:00,
2013-04-16 04:42:00,41.2,19.8,30.24,North,-999,0.0,0.0,42,0.00,,,-99.99,FreeWX-Wi 1.01,2013-04-16 11:42:00,
2013-04-16 04:47:00,41.2,19.8,30.24,North,-999,0.0,0.0,42,0.00,,,-99.99,FreeWX-Wi 1.01,2013-04-16 11:47:00,
2013-04-16 04:52:00,41.2,20.5,30.24,North,-999,0.0,0.0,43,0.00,,,-99.99,FreeWX-Wi 1.01,2013-04-16 11:52:00,
2013-04-16 04:57:00,41.2,20.5,30.24,North,-999,0.0,0.0,43,0.00,,,-99.99,FreeWX-Wi 1.01,2013-04-16 11:57:00,
2013-04-16 05:02:00,41.0,20.3,30.24,North,-999,0.0,0.0,43,0.00,,,-99.99,FreeWX-Wi 1.01,2013-04-16 12:02:00,
2013-04-16 05:07:00,41.0,20.3,30.24,North,-999,0.0,0.0,43,0.00,,,-99.99,FreeWX-Wi 1.01,2013-04-16 12:07:00,
2013-04-16 05:12:00,41.0,20.3,30.24,North,-999,0.0,0.0,43,0.00,,,-99.99,FreeWX-Wi 1.01,2013-04-16 12:12:00,
2013-04-16 05:17:00,40.8,20.7,30.24,North,-999,0.0,0.0,44,0.00,,,-99.99,FreeWX-Wi 1.01,2013-04-16 12:17:00,
2013-04-16 05:22:00,40.8,21.2,30.24,North,-999,0.0,0.0,45,0.00,,,-99.99,FreeWX-Wi 1.01,2013-04-16 12:22:00,
2013-04-16 05:27:00,40.8,21.7,30.24,North,-999,0.0,0.0,46,0.00,,,-99.99,FreeWX-Wi 1.01,2013-04-16 12:27:00,
2013-04-16 05:32:00,40.8,21.7,30.24,North,-999,0.0,0.0,46,0.00,,,-99.99,FreeWX-Wi 1.01,2013-04-16 12:32:00,
2013-04-16 05:37:00,41.0,21.7,30.24,North,-999,0.0,0.0,46,0.00,,,-99.99,FreeWX-Wi 1.01,2013-04-16 12:37:00,
2013-04-16 05:42:00,40.8,21.7,30.24,North,-999,0.0,0.0,46,0.00,,,-99.99,FreeWX-Wi 1.01,2013-04-16 12:42:00,
2013-04-16 05:47:00,40.8,22.1,30.27,North,-999,0.0,0.0,47,0.00,,,-99.99,FreeWX-Wi 1.01,2013-04-16 12:47:00,
2013-04-16 05:52:00,40.8,22.1,30.27,North,-999,0.0,0.0,47,0.00,,,-99.99,FreeWX-Wi 1.01,2013-04-16 12:52:00,
2013-04-16 05:57:00,40.6,21.9,30.27,North,-999,0.0,0.0,47,0.00,,,-99.99,FreeWX-Wi 1.01,2013-04-16 12:57:00,
2013-04-16 06:02:00,40.6,21.9,30.27,North,-999,0.0,0.0,47,0.00,,,-99.99,FreeWX-Wi 1.01,2013-04-16 13:02:00,
2013-04-16 06:07:00,40.5,21.9,30.27,North,-999,0.0,0.0,47,0.00,,,-99.99,FreeWX-Wi 1.01,2013-04-16 13:07:00,
2013-04-16 06:12:00,40.5,21.9,30.27,North,-999,0.0,0.0,47,0.00,,,-99.99,FreeWX-Wi 1.01,2013-04-16 13:12:00,
2013-04-16 06:17:00,40.5,22.3,30.27,North,-999,0.0,0.0,48,0.00,,,-99.99,FreeWX-Wi 1.01,2013-04-16 13:17:00,
2013-04-16 06:22:00,40.5,22.3,30.27,North,-999,0.0,0.0,48,0.00,,,-99.99,FreeWX-Wi 1.01,2013-04-16 13:22:00,
2013-04-16 06:27:00,40.3,22.1,30.27,North,-999,0.0,0.0,48,0.00,,,-99.99,FreeWX-Wi 1.01,2013-04-16 13:27:00,
2013-04-16 06:32:00,40.3,22.1,30.27,North,-999,0.0,0.0,48,0.00,,,-99.99,FreeWX-Wi 1.01,2013-04-16 13:32:00,
2013-04-16 06:37:00,40.3,22.1,30.27,North,-999,0.0,0.0,48,0.00,,,-99.99,FreeWX-Wi 1.01,2013-04-16 13:37:00,
2013-04-16 06:42:00,40.3,22.6,30.27,North,-999,0.0,0.0,49,0.00,,,-99.99,FreeWX-Wi 1.01,2013-04-16 13:42:00,
2013-04-16 06:47:00,40.5,22.8,30.27,North,-999,0.0,0.0,49,0.00,,,-99.99,FreeWX-Wi 1.01,2013-04-16 13:47:00,
2013-04-16 06:52:00,40.5,22.8,30.27,North,-999,0.0,0.0,49,0.00,,,-99.99,FreeWX-Wi 1.01,2013-04-16 13:52:00,
2013-04-16 06:57:00,40.5,22.8,30.27,North,-999,0.0,0.0,49,0.00,,,-99.99,FreeWX-Wi 1.01,2013-04-16 13:57:00,
2013-04-16 07:02:00,40.6,23.5,30.27,North,-999,0.0,0.0,50,0.00,,,-99.99,FreeWX-Wi 1.01,2013-04-16 14:02:00,
2013-04-16 07:07:00,41.0,24.3,30.27,North,-999,0.0,0.0,51,0.00,,,-99.99,FreeWX-Wi 1.01,2013-04-16 14:07:00,
2013-04-16 07:12:00,41.0,24.3,30.27,North,-999,0.0,0.0,51,0.00,,,-99.99,FreeWX-Wi 1.01,2013-04-16 14:12:00,
2013-04-16 07:17:00,41.2,25.0,30.30,North,-999,0.0,0.0,52,0.00,,,-99.99,FreeWX-Wi 1.01,2013-04-16 14:17:00,
2013-04-16 07:22:00,41.5,25.7,30.30,North,-999,0.0,3.6,53,0.00,,,-99.99,FreeWX-Wi 1.01,2013-04-16 14:22:00,
2013-04-16 07:27:00,41.7,25.9,30.30,North,-999,0.0,0.0,53,0.00,,,-99.99,FreeWX-Wi 1.01,2013-04-16 14:27:00,
2013-04-16 07:32:00,42.1,26.6,30.30,North,-999,0.0,0.0,54,0.00,,,-99.99,FreeWX-Wi 1.01,2013-04-16 14:32:00,
2013-04-16 07:37:00,42.8,27.7,30.30,North,-999,0.0,0.0,55,0.00,,,-99.99,FreeWX-Wi 1.01,2013-04-16 14:37:00,
2013-04-16 07:42:00,43.7,29.1,30.30,North,-999,0.0,0.0,56,0.00,,,-99.99,FreeWX-Wi 1.01,2013-04-16 14:42:00,
2013-04-16 07:47:00,44.2,29.1,30.30,North,-999,0.0,0.0,55,0.00,,,-99.99,FreeWX-Wi 1.01,2013-04-16 14:47:00,
2013-04-16 07:52:00,45.1,29.5,30.30,North,-999,0.0,0.0,54,0.00,,,-99.99,FreeWX-Wi 1.01,2013-04-16 14:52:00,
2013-04-16 07:57:00,45.5,29.3,30.30,North,-999,0.0,0.0,53,0.00,,,-99.99,FreeWX-Wi 1.01,2013-04-16 14:57:00,
2013-04-16 08:02:00,46.0,29.8,30.30,North,-999,0.0,0.0,53,0.00,,,-99.99,FreeWX-Wi 1.01,2013-04-16 15:02:00,
2013-04-16 08:07:00,46.4,29.3,30.30,North,-999,0.0,0.0,51,0.00,,,-99.99,FreeWX-Wi 1.01,2013-04-16 15:07:00,
2013-04-16 08:12:00,46.6,28.9,30.30,North,-999,0.0,0.0,50,0.00,,,-99.99,FreeWX-Wi 1.01,2013-04-16 15:12:00,
2013-04-16 08:17:00,46.8,28.6,30.30,North,-999,0.0,0.0,49,0.00,,,-99.99,FreeWX-Wi 1.01,2013-04-16 15:17:00,
2013-04-16 08:22:00,47.3,29.1,30.30,North,-999,0.0,0.0,49,0.00,,,-99.99,FreeWX-Wi 1.01,2013-04-16 15:22:00,
2013-04-16 08:27:00,47.5,28.8,30.30,North,-999,0.0,0.0,48,0.00,,,-99.99,FreeWX-Wi 1.01,2013-04-16 15:27:00,
2013-04-16 08:32:00,47.5,26.6,30.30,North,-999,0.0,0.0,44,0.00,,,-99.99,FreeWX-Wi 1.01,2013-04-16 15:32:00,
2013-04-16 08:37:00,47.8,26.4,30.30,North,-999,0.0,0.0,43,0.00,,,-99.99,FreeWX-Wi 1.01,2013-04-16 15:37:00,
2013-04-16 08:42:00,48.4,27.0,30.30,North,-999,0.0,0.0,43,0.00,,,-99.99,FreeWX-Wi 1.01,2013-04-16 15:42:00,
2013-04-16 08:47:00,48.9,26.8,30.30,North,-999,0.0,0.0,42,0.00,,,-99.99,FreeWX-Wi 1.01,2013-04-16 15:47:00,
2013-04-16 08:52:00,49.1,23.9,30.30,North,-999,0.0,2.2,37,0.00,,,-99.99,FreeWX-Wi 1.01,2013-04-16 15:52:00,
2013-04-16 08:57:00,49.5,24.3,30.30,North,-999,0.0,2.2,37,0.00,,,-99.99,FreeWX-Wi 1.01,2013-04-16 15:57:00,
2013-04-16 09:03:00,49.8,23.4,30.30,North,-999,0.0,0.0,35,0.00,,,-99.99,FreeWX-Wi 1.01,2013-04-16 16:03:00,
2013-04-16 09:08:00,49.8,20.5,30.30,North,-999,0.0,0.0,31,0.00,,,-99.99,FreeWX-Wi 1.01,2013-04-16 16:08:00,
2013-04-16 09:13:00,50.0,19.8,30.30,North,-999,0.0,0.0,30,0.00,,,-99.99,FreeWX-Wi 1.01,2013-04-16 16:13:00,
2013-04-16 09:18:00,50.7,20.5,30.30,North,-999,0.0,0.0,30,0.00,,,-99.99,FreeWX-Wi 1.01,2013-04-16 16:18:00,
2013-04-16 09:23:00,51.1,19.0,30.30,North,-999,0.0,4.0,28,0.00,,,-99.99,FreeWX-Wi 1.01,2013-04-16 16:23:00,
2013-04-16 09:28:00,51.1,18.3,30.30,North,-999,0.0,0.0,27,0.00,,,-99.99,FreeWX-Wi 1.01,2013-04-16 16:28:00,
2013-04-16 09:33:00,51.1,18.3,30.33,North,-999,0.0,0.0,27,0.00,,,-99.99,FreeWX-Wi 1.01,2013-04-16 16:33:00,
2013-04-16 09:38:00,51.3,18.5,30.33,North,-999,0.0,0.0,27,0.00,,,-99.99,FreeWX-Wi 1.01,2013-04-16 16:38:00,
2013-04-16 09:43:00,51.4,18.5,30.33,North,-999,0.0,0.0,27,0.00,,,-99.99,FreeWX-Wi 1.01,2013-04-16 16:43:00,
2013-04-16 09:48:00,51.6,18.7,30.30,North,-999,0.0,2.7,27,0.00,,,-99.99,FreeWX-Wi 1.01,2013-04-16 16:48:00,
2013-04-16 09:53:00,52.9,19.8,30.30,North,-999,0.0,3.1,27,0.00,,,-99.99,FreeWX-Wi 1.01,2013-04-16 16:53:00,
2013-04-16 09:58:00,53.8,19.8,30.30,North,-999,0.0,4.0,26,0.00,,,-99.99,FreeWX-Wi 1.01,2013-04-16 16:58:00,
2013-04-16 10:03:00,54.9,19.8,30.33,North,-999,0.0,4.0,25,0.00,,,-99.99,FreeWX-Wi 1.01,2013-04-16 17:03:00,
2013-04-16 10:08:00,55.4,17.2,30.33,North,-999,0.0,3.6,22,0.00,,,-99.99,FreeWX-Wi 1.01,2013-04-16 17:08:00,
2013-04-16 10:13:00,55.9,15.4,30.33,North,-999,0.0,2.7,20,0.00,,,-99.99,FreeWX-Wi 1.01,2013-04-16 17:13:00,
2013-04-16 10:18:00,56.1,15.6,30.33,North,-999,0.0,2.2,20,0.00,,,-99.99,FreeWX-Wi 1.01,2013-04-16 17:18:00,
2013-04-16 10:23:00,56.3,15.8,30.33,North,-999,0.0,4.9,20,0.00,,,-99.99,FreeWX-Wi 1.01,2013-04-16 17:23:00,
2013-04-16 10:28:00,56.7,16.0,30.33,North,-999,0.0,4.0,20,0.00,,,-99.99,FreeWX-Wi 1.01,2013-04-16 17:28:00,
2013-04-16 10:33:00,56.8,16.2,30.33,North,-999,0.0,5.8,20,0.00,,,-99.99,FreeWX-Wi 1.01,2013-04-16 17:33:00,
2013-04-16 10:38:00,57.2,15.3,30.33,ENE,67,1.0,7.2,19,0.00,,,-99.99,FreeWX-Wi 1.01,2013-04-16 17:38:00,
2013-04-16 10:43:00,57.0,16.3,30.33,North,359,1.0,5.4,20,0.00,,,-99.99,FreeWX-Wi 1.01,2013-04-16 17:43:00,
2013-04-16 10:48:00,57.7,13.3,30.33,NNW,340,1.0,4.0,17,0.00,,,-99.99,FreeWX-Wi 1.01,2013-04-16 17:48:00,
2013-04-16 10:53:00,57.9,13.5,30.33,NNW,335,1.0,5.4,17,0.00,,,-99.99,FreeWX-Wi 1.01,2013-04-16 17:53:00,
2013-04-16 10:58:00,58.1,13.5,30.33,NNW,335,1.0,3.1,17,0.00,,,-99.99,FreeWX-Wi 1.01,2013-04-16 17:58:00,
2013-04-16 11:03:00,58.5,13.8,30.33,NNW,346,1.0,4.0,17,0.00,,,-99.99,FreeWX-Wi 1.01,2013-04-16 18:03:00,
2013-04-16 11:08:00,58.8,14.2,30.33,NNW,343,1.0,4.0,17,0.00,,,-99.99,FreeWX-Wi 1.01,2013-04-16 18:08:00,
2013-04-16 11:13:00,59.5,14.7,30.33,NNE,29,1.0,3.6,17,0.00,,,-99.99,FreeWX-Wi 1.01,2013-04-16 18:13:00,
2013-04-16 11:18:00,60.4,15.4,30.33,North,6,1.0,5.4,17,0.00,,,-99.99,FreeWX-Wi 1.01,2013-04-16 18:18:00,
2013-04-16 11:23:00,60.8,14.4,30.33,North,9,1.0,4.5,16,0.00,,,-99.99,FreeWX-Wi 1.01,2013-04-16 18:23:00,
2013-04-16 11:28:00,60.4,15.4,30.33,North,353,1.0,6.3,17,0.00,,,-99.99,FreeWX-Wi 1.01,2013-04-16 18:28:00,
2013-04-16 11:33:00,59.9,15.1,30.33,North,6,1.0,6.3,17,0.00,,,-99.99,FreeWX-Wi 1.01,2013-04-16 18:33:00,
2013-04-16 11:38:00,59.2,14.4,30.33,North,359,2.0,5.4,17,0.00,,,-99.99,FreeWX-Wi 1.01,2013-04-16 18:38:00,
2013-04-16 11:43:00,57.9,13.5,30.33,NNW,347,2.0,5.8,17,0.00,,,-99.99,FreeWX-Wi 1.01,2013-04-16 18:43:00,
2013-04-16 11:48:00,59.4,14.5,30.33,North,6,2.0,4.0,17,0.00,,,-99.99,FreeWX-Wi 1.01,2013-04-16 18:48:00,
2013-04-16 11:53:00,60.1,15.1,30.33,North,358,2.0,3.1,17,0.00,,,-99.99,FreeWX-Wi 1.01,2013-04-16 18:53:00,
2013-04-16 11:58:00,60.6,15.6,30.33,North,0,2.0,5.4,17,0.00,,,-99.99,FreeWX-Wi 1.01,2013-04-16 18:58:00,
2013-04-16 12:03:00,61.2,14.7,30.33,NW,326,2.0,7.6,16,0.00,,,-99.99,FreeWX-Wi 1.01,2013-04-16 19:03:00,
2013-04-16 12:08:00,61.5,14.9,30.33,NW,317,2.0,5.8,16,0.00,,,-99.99,FreeWX-Wi 1.01,2013-04-16 19:08:00,
2013-04-16 12:13:00,62.4,15.6,30.33,North,2,2.0,3.6,16,0.00,,,-99.99,FreeWX-Wi 1.01,2013-04-16 19:13:00,
2013-04-16 12:18:00,62.4,15.6,30.33,ESE,106,1.0,5.4,16,0.00,,,-99.99,FreeWX-Wi 1.01,2013-04-16 19:18:00,
2013-04-16 12:23:00,62.4,15.6,30.33,NE,44,2.0,4.0,16,0.00,,,-99.99,FreeWX-Wi 1.01,2013-04-16 19:23:00,
2013-04-16 12:28:00,62.1,15.4,30.33,NNE,21,2.0,5.8,16,0.00,,,-99.99,FreeWX-Wi 1.01,2013-04-16 19:28:00,
2013-04-16 12:33:00,62.1,15.4,30.33,ENE,64,2.0,5.8,16,0.00,,,-99.99,FreeWX-Wi 1.01,2013-04-16 19:33:00,
2013-04-16 12:38:00,61.9,15.3,30.33,ENE,64,2.0,5.4,16,0.00,,,-99.99,FreeWX-Wi 1.01,2013-04-16 19:38:00,
2013-04-16 12:43:00,61.9,15.3,30.33,NW,321,2.0,4.0,16,0.00,,,-99.99,FreeWX-Wi 1.01,2013-04-16 19:43:00,
2013-04-16 12:48:00,61.9,15.3,30.33,NW,316,2.0,5.4,16,0.00,,,-99.99,FreeWX-Wi 1.01,2013-04-16 19:48:00,
2013-04-16 12:53:00,62.2,15.4,30.33,NW,311,2.0,7.6,16,0.00,,,-99.99,FreeWX-Wi 1.01,2013-04-16 19:53:00,
2013-04-16 12:58:00,62.4,15.6,30.33,NW,314,2.0,5.4,16,0.00,,,-99.99,FreeWX-Wi 1.01,2013-04-16 19:58:00,
2013-04-16 13:03:00,63.1,16.2,30.30,NW,310,2.0,6.7,16,0.00,,,-99.99,FreeWX-Wi 1.01,2013-04-16 20:03:00,
2013-04-16 13:08:00,63.5,16.5,30.30,NW,314,2.0,5.4,16,0.00,,,-99.99,FreeWX-Wi 1.01,2013-04-16 20:08:00,
2013-04-16 13:13:00,63.9,16.9,30.30,NW,324,3.0,8.3,16,0.00,,,-99.99,FreeWX-Wi 1.01,2013-04-16 20:13:00,
2013-04-16 13:18:00,63.7,16.7,30.30,NW,319,3.0,6.3,16,0.00,,,-99.99,FreeWX-Wi 1.01,2013-04-16 20:18:00,
2013-04-16 13:23:00,63.9,16.9,30.30,NW,315,3.0,10.1,16,0.00,,,-99.99,FreeWX-Wi 1.01,2013-04-16 20:23:00,
2013-04-16 13:28:00,63.3,16.3,30.30,NW,316,3.0,8.3,16,0.00,,,-99.99,FreeWX-Wi 1.01,2013-04-16 20:28:00,
2013-04-16 13:33:00,63.7,16.7,30.30,NW,320,3.0,5.8,16,0.00,,,-99.99,FreeWX-Wi 1.01,2013-04-16 20:33:00,
2013-04-16 13:38:00,63.5,16.5,30.30,NW,319,3.0,5.4,16,0.00,,,-99.99,FreeWX-Wi 1.01,2013-04-16 20:38:00,
2013-04-16 13:43:00,63.9,16.9,30.30,NW,322,3.0,5.8,16,0.00,,,-99.99,FreeWX-Wi 1.01,2013-04-16 20:43:00,
2013-04-16 13:48:00,64.0,16.9,30.30,NW,326,3.0,7.6,16,0.00,,,-99.99,FreeWX-Wi 1.01,2013-04-16 20:48:00,
2013-04-16 13:53:00,64.2,17.1,30.30,NW,325,3.0,5.8,16,0.00,,,-99.99,FreeWX-Wi 1.01,2013-04-16 20:53:00,
2013-04-16 13:58:00,63.0,16.2,30.30,NW,324,3.0,7.2,16,0.00,,,-99.99,FreeWX-Wi 1.01,2013-04-16 20:58:00,
2013-04-16 14:03:00,63.3,16.3,30.30,NW,324,3.0,5.4,16,0.00,,,-99.99,FreeWX-Wi 1.01,2013-04-16 21:03:00,
2013-04-16 14:08:00,63.5,16.5,30.30,NW,321,2.0,5.4,16,0.00,,,-99.99,FreeWX-Wi 1.01,2013-04-16 21:08:00,
2013-04-16 14:13:00,63.1,16.2,30.30,NW,316,3.0,6.3,16,0.00,,,-99.99,FreeWX-Wi 1.01,2013-04-16 21:13:00,
2013-04-16 14:18:00,63.1,16.2,30.30,NW,318,3.0,7.6,16,0.00,,,-99.99,FreeWX-Wi 1.01,2013-04-16 21:18:00,
2013-04-16 14:23:00,63.5,16.5,30.30,NW,320,3.0,5.4,16,0.00,,,-99.99,FreeWX-Wi 1.01,2013-04-16 21:23:00,
2013-04-16 14:28:00,62.8,16.0,30.30,NW,322,3.0,8.1,16,0.00,,,-99.99,FreeWX-Wi 1.01,2013-04-16 21:28:00,
2013-04-16 14:33:00,62.2,15.4,30.30,NW,320,3.0,5.4,16,0.00,,,-99.99,FreeWX-Wi 1.01,2013-04-16 21:33:00,
2013-04-16 14:38:00,62.8,16.0,30.30,NW,323,3.0,5.8,16,0.00,,,-99.99,FreeWX-Wi 1.01,2013-04-16 21:38:00,
2013-04-16 14:43:00,62.2,15.4,30.30,NW,325,3.0,7.6,16,0.00,,,-99.99,FreeWX-Wi 1.01,2013-04-16 21:43:00,
2013-04-16 14:48:00,61.0,14.5,30.30,NW,322,3.0,8.7,16,0.00,,,-99.99,FreeWX-Wi 1.01,2013-04-16 21:48:00,
2013-04-16 14:53:00,60.6,15.6,30.30,NW,316,4.0,11.0,17,0.00,,,-99.99,FreeWX-Wi 1.01,2013-04-16 21:53:00,
2013-04-16 14:58:00,61.0,14.5,30.30,NW,317,4.0,5.8,16,0.00,,,-99.99,FreeWX-Wi 1.01,2013-04-16 21:58:00,
2013-04-16 15:03:00,60.4,15.4,30.30,NW,318,4.0,8.1,17,0.00,,,-99.99,FreeWX-Wi 1.01,2013-04-16 22:03:00,
2013-04-16 15:08:00,59.9,15.1,30.30,NW,320,4.0,5.8,17,0.00,,,-99.99,FreeWX-Wi 1.01,2013-04-16 22:08:00,
2013-04-16 15:14:00,60.6,15.6,30.30,NW,322,3.0,6.7,17,0.00,,,-99.99,FreeWX-Wi 1.01,2013-04-16 22:14:00,
2013-04-16 15:19:00,61.0,14.5,30.30,NW,322,3.0,7.6,16,0.00,,,-99.99,FreeWX-Wi 1.01,2013-04-16 22:19:00,
2013-04-16 15:24:00,60.8,14.4,30.30,NW,318,3.0,7.6,16,0.00,,,-99.99,FreeWX-Wi 1.01,2013-04-16 22:24:00,
2013-04-16 15:29:00,60.8,14.4,30.30,NW,315,3.0,6.3,16,0.00,,,-99.99,FreeWX-Wi 1.01,2013-04-16 22:29:00,
2013-04-16 15:34:00,61.0,14.5,30.30,NW,313,3.0,8.1,16,0.00,,,-99.99,FreeWX-Wi 1.01,2013-04-16 22:34:00,
2013-04-16 15:39:00,60.8,14.4,30.30,NW,306,3.0,5.8,16,0.00,,,-99.99,FreeWX-Wi 1.01,2013-04-16 22:39:00,
2013-04-16 15:44:00,60.4,15.4,30.30,WNW,302,3.0,6.7,17,0.00,,,-99.99,FreeWX-Wi 1.01,2013-04-16 22:44:00,
2013-04-16 15:49:00,60.8,14.4,30.30,NW,307,3.0,5.8,16,0.00,,,-99.99,FreeWX-Wi 1.01,2013-04-16 22:49:00,
2013-04-16 15:54:00,61.0,14.5,30.30,NW,307,3.0,7.6,16,0.00,,,-99.99,FreeWX-Wi 1.01,2013-04-16 22:54:00,
2013-04-16 15:59:00,60.4,15.4,30.30,NW,311,3.0,8.7,17,0.00,,,-99.99,FreeWX-Wi 1.01,2013-04-16 22:59:00,
2013-04-16 16:04:00,59.7,14.9,30.30,NW,313,4.0,8.1,17,0.00,,,-99.99,FreeWX-Wi 1.01,2013-04-16 23:04:00,
2013-04-16 16:09:00,59.5,14.7,30.30,NW,315,4.0,6.3,17,0.00,,,-99.99,FreeWX-Wi 1.01,2013-04-16 23:09:00,
2013-04-16 16:14:00,58.8,14.2,30.30,NW,318,4.0,5.8,17,0.00,,,-99.99,FreeWX-Wi 1.01,2013-04-16 23:14:00,
2013-04-16 16:19:00,59.0,14.2,30.30,NW,319,4.0,5.4,17,0.00,,,-99.99,FreeWX-Wi 1.01,2013-04-16 23:19:00,
2013-04-16 16:24:00,59.4,14.5,30.30,NW,319,3.0,4.0,17,0.00,,,-99.99,FreeWX-Wi 1.01,2013-04-16 23:24:00,
2013-04-16 16:29:00,59.9,15.1,30.30,NW,320,3.0,6.3,17,0.00,,,-99.99,FreeWX-Wi 1.01,2013-04-16 23:29:00,
2013-04-16 16:34:00,60.1,15.1,30.30,NW,322,3.0,8.3,17,0.00,,,-99.99,FreeWX-Wi 1.01,2013-04-16 23:34:00,
2013-04-16 16:39:00,59.4,14.5,30.30,NW,323,3.0,6.7,17,0.00,,,-99.99,FreeWX-Wi 1.01,2013-04-16 23:39:00,
2013-04-16 16:44:00,58.6,14.0,30.30,NW,323,3.0,6.3,17,0.00,,,-99.99,FreeWX-Wi 1.01,2013-04-16 23:44:00,
2013-04-16 16:49:00,58.3,13.6,30.30,NW,321,3.0,5.8,17,0.00,,,-99.99,FreeWX-Wi 1.01,2013-04-16 23:49:00,
2013-04-16 16:54:00,58.1,13.5,30.30,NW,320,4.0,10.1,17,0.00,,,-99.99,FreeWX-Wi 1.01,2013-04-16 23:54:00,
2013-04-16 16:59:00,57.9,13.5,30.30,NW,319,4.0,9.6,17,0.00,,,-99.99,FreeWX-Wi 1.01,2013-04-16 23:59:00,
2013-04-16 17:04:00,57.6,13.1,30.30,NW,319,4.0,10.1,17,0.00,,,-99.99,FreeWX-Wi 1.01,2013-04-17 00:04:00,
2013-04-16 17:09:00,56.7,12.4,30.30,NW,319,5.0,14.5,17,0.00,,,-99.99,FreeWX-Wi 1.01,2013-04-17 00:09:00,
2013-04-16 17:14:00,56.7,12.4,30.30,NW,317,5.0,8.7,17,0.00,,,-99.99,FreeWX-Wi 1.01,2013-04-17 00:14:00,
2013-04-16 17:19:00,56.3,12.0,30.30,NW,315,6.0,12.3,17,0.00,,,-99.99,FreeWX-Wi 1.01,2013-04-17 00:19:00,
2013-04-16 17:24:00,56.3,12.0,30.30,NW,313,5.0,5.8,17,0.00,,,-99.99,FreeWX-Wi 1.01,2013-04-17 00:24:00,
2013-04-16 17:29:00,56.3,12.0,30.30,NW,316,5.0,5.4,17,0.00,,,-99.99,FreeWX-Wi 1.01,2013-04-17 00:29:00,
2013-04-16 17:34:00,56.3,12.0,30.30,NW,310,4.0,5.8,17,0.00,,,-99.99,FreeWX-Wi 1.01,2013-04-17 00:34:00,
2013-04-16 17:39:00,56.1,11.8,30.30,NW,305,4.0,6.3,17,0.00,,,-99.99,FreeWX-Wi 1.01,2013-04-17 00:39:00,
2013-04-16 17:44:00,56.1,11.8,30.30,WNW,300,3.0,4.9,17,0.00,,,-99.99,FreeWX-Wi 1.01,2013-04-17 00:44:00,
2013-04-16 17:49:00,56.1,11.8,30.30,WNW,300,2.0,7.6,17,0.00,,,-99.99,FreeWX-Wi 1.01,2013-04-17 00:49:00,
2013-04-16 17:54:00,55.8,11.7,30.30,WNW,291,2.0,6.3,17,0.00,,,-99.99,FreeWX-Wi 1.01,2013-04-17 00:54:00,
2013-04-16 17:59:00,55.6,11.5,30.30,WNW,285,2.0,6.3,17,0.00,,,-99.99,FreeWX-Wi 1.01,2013-04-17 00:59:00,
2013-04-16 18:04:00,55.6,11.5,30.30,WNW,293,2.0,3.6,17,0.00,,,-99.99,FreeWX-Wi 1.01,2013-04-17 01:04:00,
2013-04-16 18:09:00,55.4,11.3,30.30,WNW,299,2.0,5.8,17,0.00,,,-99.99,FreeWX-Wi 1.01,2013-04-17 01:09:00,
2013-04-16 18:14:00,55.2,12.6,30.30,NW,304,3.0,5.8,18,0.00,,,-99.99,FreeWX-Wi 1.01,2013-04-17 01:14:00,
2013-04-16 18:19:00,55.0,12.4,30.30,NW,304,3.0,8.7,18,0.00,,,-99.99,FreeWX-Wi 1.01,2013-04-17 01:19:00,
2013-04-16 18:24:00,55.0,12.4,30.30,NW,313,2.0,4.9,18,0.00,,,-99.99,FreeWX-Wi 1.01,2013-04-17 01:24:00,
2013-04-16 18:29:00,54.7,12.0,30.30,NW,315,3.0,6.7,18,0.00,,,-99.99,FreeWX-Wi 1.01,2013-04-17 01:29:00,
2013-04-16 18:34:00,54.5,11.8,30.33,NW,315,3.0,9.2,18,0.00,,,-99.99,FreeWX-Wi 1.01,2013-04-17 01:34:00,
2013-04-16 18:39:00,54.5,11.8,30.33,NW,313,4.0,6.7,18,0.00,,,-99.99,FreeWX-Wi 1.01,2013-04-17 01:39:00,
2013-04-16 18:44:00,54.3,11.7,30.33,NW,309,4.0,7.6,18,0.00,,,-99.99,FreeWX-Wi 1.01,2013-04-17 01:44:00,
2013-04-16 18:49:00,54.0,11.5,30.33,NW,309,4.0,7.6,18,0.00,,,-99.99,FreeWX-Wi 1.01,2013-04-17 01:49:00,
2013-04-16 18:54:00,53.6,11.1,30.33,NW,306,4.0,5.4,18,0.00,,,-99.99,FreeWX-Wi 1.01,2013-04-17 01:54:00,
2013-04-16 18:59:00,53.4,10.9,30.33,NW,308,4.0,5.4,18,0.00,,,-99.99,FreeWX-Wi 1.01,2013-04-17 01:59:00,
2013-04-16 19:04:00,53.1,10.8,30.33,NW,310,3.0,3.6,18,0.00,,,-99.99,FreeWX-Wi 1.01,2013-04-17 02:04:00,
2013-04-16 19:09:00,52.9,10.6,30.33,NW,307,2.0,3.1,18,0.00,,,-99.99,FreeWX-Wi 1.01,2013-04-17 02:09:00,
2013-04-16 19:14:00,52.5,10.2,30.33,WNW,303,2.0,0.0,18,0.00,,,-99.99,FreeWX-Wi 1.01,2013-04-17 02:14:00,
2013-04-16 19:19:00,52.2,10.0,30.33,WNW,300,1.0,0.0,18,0.00,,,-99.99,FreeWX-Wi 1.01,2013-04-17 02:19:00,
2013-04-16 19:24:00,52.0,9.9,30.33,North,-999,0.0,0.0,18,0.00,,,-99.99,FreeWX-Wi 1.01,2013-04-17 02:24:00,
2013-04-16 19:29:00,51.8,9.7,30.33,North,-999,0.0,0.0,18,0.00,,,-99.99,FreeWX-Wi 1.01,2013-04-17 02:29:00,
2013-04-16 19:34:00,51.6,10.8,30.33,North,-999,0.0,0.0,19,0.00,,,-99.99,FreeWX-Wi 1.01,2013-04-17 02:34:00,
2013-04-16 19:39:00,51.4,10.6,30.33,North,-999,0.0,0.0,19,0.00,,,-99.99,FreeWX-Wi 1.01,2013-04-17 02:39:00,
2013-04-16 19:44:00,51.3,10.4,30.33,North,-999,0.0,0.0,19,0.00,,,-99.99,FreeWX-Wi 1.01,2013-04-17 02:44:00,
2013-04-16 19:49:00,51.1,10.2,30.33,North,-999,0.0,0.0,19,0.00,,,-99.99,FreeWX-Wi 1.01,2013-04-17 02:49:00,
2013-04-16 19:54:00,50.7,10.0,30.33,North,-999,0.0,0.0,19,0.00,,,-99.99,FreeWX-Wi 1.01,2013-04-17 02:54:00,
2013-04-16 19:59:00,50.7,10.0,30.33,North,-999,0.0,0.0,19,0.00,,,-99.99,FreeWX-Wi 1.01,2013-04-17 02:59:00,
2013-04-16 20:04:00,50.5,9.9,30.33,North,-999,0.0,0.0,19,0.00,,,-99.99,FreeWX-Wi 1.01,2013-04-17 03:04:00,
2013-04-16 20:09:00,50.5,9.9,30.33,North,-999,0.0,0.0,19,0.00,,,-99.99,FreeWX-Wi 1.01,2013-04-17 03:09:00,
2013-04-16 20:14:00,50.4,9.7,30.33,North,-999,0.0,0.0,19,0.00,,,-99.99,FreeWX-Wi 1.01,2013-04-17 03:14:00,
2013-04-16 20:20:00,50.2,9.5,30.33,North,-999,0.0,0.0,19,0.00,,,-99.99,FreeWX-Wi 1.01,2013-04-17 03:20:00,
2013-04-16 20:25:00,50.0,9.3,30.33,North,-999,0.0,0.0,19,0.00,,,-99.99,FreeWX-Wi 1.01,2013-04-17 03:25:00,
2013-04-16 20:30:00,49.8,9.3,30.33,North,-999,0.0,0.0,19,0.00,,,-99.99,FreeWX-Wi 1.01,2013-04-17 03:30:00,
2013-04-16 20:35:00,49.6,9.1,30.36,North,-999,0.0,0.0,19,0.00,,,-99.99,FreeWX-Wi 1.01,2013-04-17 03:35:00,
2013-04-16 20:40:00,49.5,9.0,30.36,North,-999,0.0,0.0,19,0.00,,,-99.99,FreeWX-Wi 1.01,2013-04-17 03:40:00,
2013-04-16 20:45:00,49.3,8.8,30.36,North,-999,0.0,0.0,19,0.00,,,-99.99,FreeWX-Wi 1.01,2013-04-17 03:45:00,
2013-04-16 20:50:00,49.1,8.6,30.36,North,-999,0.0,0.0,19,0.00,,,-99.99,FreeWX-Wi 1.01,2013-04-17 03:50:00,
2013-04-16 20:55:00,48.9,8.4,30.36,North,-999,0.0,0.0,19,0.00,,,-99.99,FreeWX-Wi 1.01,2013-04-17 03:55:00,
2013-04-16 21:00:00,48.7,8.4,30.36,North,-999,0.0,0.0,19,0.00,,,-99.99,FreeWX-Wi 1.01,2013-04-17 04:00:00,
2013-04-16 21:05:00,48.7,8.4,30.36,North,-999,0.0,3.1,19,0.00,,,-99.99,FreeWX-Wi 1.01,2013-04-17 04:05:00,
2013-04-16 21:10:00,48.6,10.4,30.36,North,-999,0.0,3.1,21,0.00,,,-99.99,FreeWX-Wi 1.01,2013-04-17 04:10:00,
2013-04-16 21:15:00,48.4,10.2,30.36,North,-999,0.0,3.6,21,0.00,,,-99.99,FreeWX-Wi 1.01,2013-04-17 04:15:00,
2013-04-16 21:20:00,48.2,13.1,30.36,North,-999,0.0,0.0,24,0.00,,,-99.99,FreeWX-Wi 1.01,2013-04-17 04:20:00,
2013-04-16 21:25:00,48.0,12.9,30.36,North,-999,0.0,0.0,24,0.00,,,-99.99,FreeWX-Wi 1.01,2013-04-17 04:25:00,
2013-04-16 21:30:00,48.0,12.9,30.36,North,-999,0.0,0.0,24,0.00,,,-99.99,FreeWX-Wi 1.01,2013-04-17 04:30:00,
2013-04-16 21:35:00,48.0,15.6,30.39,North,-999,0.0,0.0,27,0.00,,,-99.99,FreeWX-Wi 1.01,2013-04-17 04:35:00,
2013-04-16 21:40:00,47.8,15.4,30.39,North,-999,0.0,0.0,27,0.00,,,-99.99,FreeWX-Wi 1.01,2013-04-17 04:40:00,
2013-04-16 21:45:00,47.7,15.3,30.39,North,-999,0.0,0.0,27,0.00,,,-99.99,FreeWX-Wi 1.01,2013-04-17 04:45:00,
2013-04-16 21:50:00,47.7,15.3,30.39,North,-999,0.0,0.0,27,0.00,,,-99.99,FreeWX-Wi 1.01,2013-04-17 04:50:00,
2013-04-16 21:55:00,47.5,15.3,30.39,North,-999,0.0,0.0,27,0.00,,,-99.99,FreeWX-Wi 1.01,2013-04-17 04:55:00,
2013-04-16 22:00:00,47.5,15.3,30.39,North,-999,0.0,0.0,27,0.00,,,-99.99,FreeWX-Wi 1.01,2013-04-17 05:00:00,
2013-04-16 22:05:00,47.5,15.3,30.39,North,-999,0.0,0.0,27,0.00,,,-99.99,FreeWX-Wi 1.01,2013-04-17 05:05:00,
2013-04-16 22:10:00,47.3,15.1,30.39,North,-999,0.0,0.0,27,0.00,,,-99.99,FreeWX-Wi 1.01,2013-04-17 05:10:00,
2013-04-16 22:15:00,47.5,15.3,30.39,North,-999,0.0,0.0,27,0.00,,,-99.99,FreeWX-Wi 1.01,2013-04-17 05:15:00,
2013-04-16 22:20:00,47.5,15.3,30.39,North,-999,0.0,0.0,27,0.00,,,-99.99,FreeWX-Wi 1.01,2013-04-17 05:20:00,
2013-04-16 22:25:00,47.7,15.3,30.39,North,-999,0.0,0.0,27,0.00,,,-99.99,FreeWX-Wi 1.01,2013-04-17 05:25:00,
2013-04-16 22:30:00,47.3,15.1,30.39,North,-999,0.0,0.0,27,0.00,,,-99.99,FreeWX-Wi 1.01,2013-04-17 05:30:00,
2013-04-16 22:35:00,46.9,14.7,30.39,North,-999,0.0,0.0,27,0.00,,,-99.99,FreeWX-Wi 1.01,2013-04-17 05:35:00,
2013-04-16 22:40:00,46.8,14.5,30.39,North,-999,0.0,0.0,27,0.00,,,-99.99,FreeWX-Wi 1.01,2013-04-17 05:40:00,
2013-04-16 22:45:00,46.8,14.5,30.39,North,-999,0.0,0.0,27,0.00,,,-99.99,FreeWX-Wi 1.01,2013-04-17 05:45:00,
2013-04-16 22:50:00,46.8,14.5,30.39,North,-999,0.0,0.0,27,0.00,,,-99.99,FreeWX-Wi 1.01,2013-04-17 05:50:00,
2013-04-16 22:55:00,46.8,15.4,30.39,North,-999,0.0,0.0,28,0.00,,,-99.99,FreeWX-Wi 1.01,2013-04-17 05:55:00,
2013-04-16 23:00:00,46.9,15.6,30.39,North,-999,0.0,0.0,28,0.00,,,-99.99,FreeWX-Wi 1.01,2013-04-17 06:00:00,
2013-04-16 23:05:00,46.9,15.6,30.39,North,-999,0.0,0.0,28,0.00,,,-99.99,FreeWX-Wi 1.01,2013-04-17 06:05:00,
2013-04-16 23:10:00,46.8,15.4,30.39,North,-999,0.0,0.0,28,0.00,,,-99.99,FreeWX-Wi 1.01,2013-04-17 06:10:00,
2013-04-16 23:15:00,46.8,15.4,30.39,North,-999,0.0,0.0,28,0.00,,,-99.99,FreeWX-Wi 1.01,2013-04-17 06:15:00,
2013-04-16 23:20:00,46.8,15.4,30.41,North,-999,0.0,0.0,28,0.00,,,-99.99,FreeWX-Wi 1.01,2013-04-17 06:20:00,
2013-04-16 23:25:00,46.8,15.4,30.41,North,-999,0.0,0.0,28,0.00,,,-99.99,FreeWX-Wi 1.01,2013-04-17 06:25:00,
2013-04-16 23:30:00,46.6,15.3,30.41,North,-999,0.0,0.0,28,0.00,,,-99.99,FreeWX-Wi 1.01,2013-04-17 06:30:00,
2013-04-16 23:35:00,46.6,15.3,30.41,North,-999,0.0,0.0,28,0.00,,,-99.99,FreeWX-Wi 1.01,2013-04-17 06:35:00,
2013-04-16 23:40:00,46.6,15.3,30.41,North,-999,0.0,0.0,28,0.00,,,-99.99,FreeWX-Wi 1.01,2013-04-17 06:40:00,
2013-04-16 23:45:00,46.6,15.3,30.41,North,-999,0.0,0.0,28,0.00,,,-99.99,FreeWX-Wi 1.01,2013-04-17 06:45:00,
2013-04-16 23:50:00,46.4,15.1,30.41,North,-999,0.0,0.0,28,0.00,,,-99.99,FreeWX-Wi 1.01,2013-04-17 06:50:00,
2013-04-16 23:55:00,46.4,15.1,30.41,North,-999,0.0,0.0,28,0.00,,,-99.99,FreeWX-Wi 1.01,2013-04-17 06:55:00,